Total_Precipitation_Accumulation
0.55 0.53 0.49 0.47 0.43 0.36 0.30 0.31 0.26 0.24 0.22 0.19 0.16 0.13 0.12 0.11 0.10 0.11 0.11 0.11 0.10 0.13 0.21 0.28 0.32 0.35 0.38 0.42 0.45 0.47 0.45 0.43 0.42 0.42 0.42 0.41 0.41 0.41 0.42 0.42 0.42 0.43 0.43
0.63 0.55 0.53 0.51 0.47 0.42 0.38 0.36 0.32 0.31 0.29 0.25 0.19 0.15 0.13 0.12 0.12 0.11 0.11 0.12 0.11 0.10 0.14 0.22 0.31 0.38 0.45 0.53 0.60 0.64 0.61 0.58 0.55 0.53 0.53 0.52 0.50 0.48 0.48 0.49 0.48 0.50 0.50
0.81 0.71 0.62 0.55 0.48 0.45 0.46 0.47 0.45 0.42 0.36 0.31 0.24 0.20 0.17 0.15 0.14 0.12 0.12 0.12 0.11 0.10 0.11 0.16 0.24 0.33 0.40 0.51 0.63 0.72 0.74 0.73 0.72 0.69 0.65 0.63 0.63 0.62 0.62 0.62 0.62 0.64 0.67
0.89 0.86 0.75 0.65 0.58 0.55 0.53 0.54 0.52 0.49 0.43 0.38 0.32 0.29 0.25 0.21 0.17 0.16 0.15 0.13 0.12 0.10 0.10 0.13 0.17 0.22 0.31 0.42 0.56 0.70 0.74 0.73 0.73 0.71 0.68 0.67 0.66 0.68 0.70 0.72 0.75 0.78 0.84
0.97 0.92 0.85 0.73 0.71 0.69 0.59 0.55 0.54 0.50 0.48 0.47 0.45 0.38 0.33 0.29 0.26 0.25 0.23 0.20 0.17 0.15 0.13 0.13 0.14 0.17 0.22 0.29 0.42 0.59 0.73 0.77 0.79 0.80 0.79 0.75 0.73 0.74 0.76 0.80 0.85 0.91 0.99
1.08 1.02 0.98 0.90 0.85 0.86 0.79 0.68 0.61 0.58 0.54 0.50 0.50 0.48 0.44 0.39 0.33 0.31 0.28 0.25 0.24 0.21 0.19 0.19 0.18 0.17 0.18 0.23 0.30 0.43 0.61 0.74 0.81 0.82 0.83 0.86 0.85 0.84 0.87 0.93 1.02 1.12 1.24
1.21 1.11 0.99 0.99 0.99 0.95 0.91 0.87 0.82 0.77 0.72 0.71 0.71 0.62 0.51 0.46 0.42 0.35 0.33 0.31 0.27 0.26 0.24 0.24 0.24 0.23 0.23 0.24 0.27 0.34 0.45 0.61 0.81 0.90 0.92 0.91 0.93 0.99 1.07 1.15 1.25 1.35 1.44
1.29 1.25 1.12 0.99 1.00 1.02 1.00 1.00 0.99 0.95 0.90 0.90 0.94 0.93 0.77 0.61 0.46 0.38 0.36 0.36 0.35 0.35 0.35 0.33 0.32 0.32 0.30 0.29 0.29 0.32 0.38 0.46 0.63 0.88 1.02 1.06 1.09 1.13 1.27 1.44 1.56 1.64 1.72
1.52 1.39 1.36 1.25 1.11 1.07 1.00 0.96 0.93 0.96 0.96 0.95 0.95 1.06 0.99 0.77 0.58 0.46 0.39 0.35 0.37 0.40 0.39 0.38 0.37 0.36 0.34 0.32 0.30 0.32 0.35 0.40 0.50 0.73 1.02 1.22 1.32 1.42 1.57 1.76 1.95 2.09 2.14
1.82 1.74 1.61 1.53 1.38 1.24 1.14 1.10 1.04 1.02 1.04 1.02 0.99 0.94 0.92 0.82 0.79 0.64 0.46 0.40 0.39 0.40 0.41 0.40 0.36 0.36 0.38 0.40 0.40 0.42 0.45 0.49 0.57 0.71 0.97 1.25 1.49 1.72 1.96 2.13 2.26 2.39 2.42
1.87 1.83 1.78 1.71 1.58 1.47 1.39 1.35 1.29 1.23 1.20 1.14 1.08 1.02 1.00 0.91 0.83 0.84 0.64 0.45 0.46 0.45 0.48 0.49 0.47 0.44 0.45 0.48 0.50 0.55 0.61 0.63 0.70 0.83 1.07 1.37 1.73 2.06 2.34 2.53 2.60 2.55 2.49
2.00 1.83 1.78 1.78 1.72 1.67 1.61 1.58 1.55 1.46 1.37 1.29 1.24 1.17 1.17 1.13 0.98 0.99 0.91 0.68 0.61 0.55 0.55 0.58 0.60 0.61 0.59 0.60 0.62 0.70 0.71 0.72 0.77 0.89 1.16 1.47 1.68 1.90 2.12 2.37 2.56 2.63 2.65
1.99 1.88 1.79 1.79 1.80 1.71 1.70 1.69 1.64 1.55 1.49 1.41 1.37 1.32 1.26 1.19 1.15 1.20 1.24 1.07 0.91 0.74 0.66 0.64 0.64 0.66 0.69 0.71 0.71 0.81 0.78 0.83 0.86 0.89 1.05 1.36 1.51 1.54 1.59 1.76 2.05 2.32 2.50
1.97 1.94 1.91 1.81 1.80 1.77 1.70 1.68 1.64 1.54 1.49 1.45 1.40 1.38 1.34 1.27 1.28 1.32 1.39 1.45 1.34 1.06 0.87 0.75 0.71 0.77 0.82 0.85 0.86 0.89 0.76 0.81 0.81 0.84 0.91 1.03 1.11 1.10 1.14 1.27 1.47 1.70 1.92
1.84 1.81 1.81 1.73 1.66 1.64 1.62 1.61 1.58 1.50 1.44 1.37 1.33 1.33 1.30 1.23 1.25 1.29 1.36 1.52 1.70 1.53 1.14 0.85 0.79 0.79 0.86 0.89 0.94 0.89 0.77 0.82 0.83 0.82 0.82 0.82 0.85 0.89 0.93 1.01 1.13 1.26 1.41
1.47 1.52 1.56 1.56 1.50 1.48 1.47 1.46 1.42 1.41 1.39 1.29 1.24 1.23 1.20 1.15 1.18 1.24 1.31 1.39 1.55 1.68 1.41 0.95 0.79 0.74 0.77 0.78 0.84 0.79 0.72 0.81 0.77 0.73 0.70 0.72 0.75 0.81 0.85 0.89 0.95 1.02 1.12
1.14 1.18 1.18 1.22 1.26 1.28 1.29 1.28 1.27 1.27 1.29 1.24 1.21 1.21 1.20 1.17 1.17 1.17 1.20 1.25 1.32 1.44 1.43 1.02 0.84 0.81 0.80 0.77 0.75 0.73 0.67 0.68 0.64 0.70 0.68 0.68 0.70 0.76 0.83 0.85 0.88 0.92 0.97
0.96 0.96 0.96 0.96 0.97 0.99 1.04 1.06 1.06 1.08 1.12 1.11 1.10 1.12 1.13 1.15 1.19 1.16 1.15 1.14 1.12 1.13 1.22 1.06 0.81 0.76 0.75 0.74 0.76 0.78 0.72 0.66 0.60 0.67 0.67 0.65 0.68 0.70 0.75 0.82 0.88 0.91 0.94
0.88 0.84 0.82 0.82 0.82 0.82 0.84 0.90 0.96 0.98 1.00 1.01 1.00 1.01 1.01 1.05 1.08 1.04 1.02 1.00 0.98 1.00 1.08 1.09 0.89 0.76 0.74 0.74 0.79 0.79 0.74 0.71 0.66 0.70 0.75 0.73 0.75 0.74 0.77 0.83 0.90 0.95 0.97
0.91 0.82 0.77 0.74 0.75 0.77 0.80 0.84 0.92 0.97 0.98 0.98 0.99 0.99 0.95 0.92 0.89 0.88 0.90 0.92 0.99 1.07 1.10 1.15 1.03 0.87 0.80 0.77 0.84 0.83 0.80 0.74 0.73 0.72 0.83 0.86 0.87 0.85 0.82 0.84 0.89 0.95 0.99
0.89 0.89 0.84 0.80 0.77 0.77 0.81 0.87 0.90 0.95 0.96 0.97 0.94 0.91 0.90 0.91 0.87 0.85 0.86 0.90 0.98 1.13 1.24 1.30 1.22 1.06 0.94 0.87 0.84 0.83 0.91 0.90 0.89 0.83 0.84 0.86 0.87 0.89 0.88 0.90 0.92 0.93 0.97
0.85 0.92 0.96 0.93 0.88 0.86 0.98 0.97 0.91 0.92 0.95 0.95 0.92 0.86 0.84 0.88 0.86 0.86 0.88 0.94 1.07 1.22 1.36 1.42 1.37 1.21 0.96 0.84 0.86 0.99 1.14 1.30 1.23 0.87 0.88 0.91 0.89 0.97 0.93 0.91 1.03 1.07 1.06
0.94 0.96 1.01 1.04 1.02 1.05 1.08 0.95 0.93 0.86 0.87 0.89 0.87 0.84 0.80 0.77 0.81 0.75 0.82 0.94 1.02 1.12 1.18 1.19 1.17 0.99 0.88 0.83 1.03 1.29 1.34 1.38 1.19 0.92 1.05 1.18 1.04 1.02 0.94 0.98 1.13 1.08 1.06
0.96 1.00 1.03 1.02 0.99 1.00 1.00 0.89 0.86 0.79 0.80 0.81 0.80 0.77 0.79 0.80 0.79 0.84 0.89 0.96 0.87 0.81 0.84 0.84 0.86 0.85 0.87 0.96 1.22 1.54 1.66 1.67 1.44 1.24 1.23 1.33 1.08 0.98 0.94 0.98 1.12 1.07 0.99
0.92 0.90 0.91 0.92 0.92 0.92 0.90 0.81 0.77 0.72 0.74 0.71 0.69 0.68 0.70 0.73 0.88 1.04 1.08 1.08 0.90 0.73 0.74 0.84 0.93 0.95 0.99 1.08 1.20 1.52 1.78 1.91 1.68 1.25 1.12 1.22 1.12 1.06 1.05 1.01 1.02 1.08 1.02
0.86 0.82 0.78 0.76 0.75 0.77 0.80 0.75 0.72 0.68 0.71 0.68 0.65 0.63 0.70 0.72 0.86 1.02 1.00 1.05 0.99 0.83 0.80 0.83 0.86 0.89 0.87 0.94 1.14 1.30 1.76 2.26 2.01 1.52 1.04 1.17 1.21 1.30 1.50 1.12 0.95 0.97 1.00